Multibeam Report for SKQ201605S


Ship Name: Sikuliaq
Chief Scientist: Ohman, Mark
Scripps Institution of Oceanography
Source Organization: Rolling Deck to Repository
Start Date: 2016-04-17
End Date: 2016-05-12


View ISO Metadata

Visit the full NCEI Bathymetry Viewer


Multibeam Bathymetry

Cruise Details

Project: RAPID: Responses of the California Current Ecosystem to El Nino 2015-16
Instrument: Kongsberg EM302 and EM710

Data Quality

Number of Files: 208
Number of Records: 370529
BATHYMETRY DATA Quantity Percentage
Number of Beams 159289648 100%
Number of Good Beams 148918076 93.49%
Number of Zero Beams 0 0%
Number of Flagged Beams 10371572 6.51%
AMPLITUDE DATA Quantity Percentage
Number of Beams 159289648 100%
Number of Good Beams 148918076 93.49%
Number of Zero Beams 0 0%
Number of Flagged Beams 10371572 6.51%
SIDESCAN DATA Quantity Percentage
Number of Pixels 379421696 100%
Number of Good Pixels 288374905 76.0%
Number of Zero Pixels 0 0%
Number of Flagged Pixels 91046791 24.0%

Navigation Totals

Total Time: 378.1359 hours
Total Track Length: 3448.544 km
Average Speed: 9.12 km/hr (4.9244 knots)

Cruise Bounds

Northern Extent: 35.085823
Southern Extent: 32.57806
Western Extent: -123.21802
Eastern Extent: -117.198814

Limits

Minimum Sonar Depth 0 Maximum Sonar Depth 9.4527
Minimum Altitude 10.0338 Maximum Altitude 5040.6021
Minimum Depth 12.1176 Maximum Depth 5667.6196
Minimum Amplitude 0 Maximum Amplitude 91.5
Minimum Sidescan 0 Maximum Sidescan 322.48

File Information

Full Resolution Bathymetry as collected (raw): 206

Files File Size Description
0000_20160420_023917_Sikuliaq.all.mb58.gz 11.35MB Kongsberg multibeam vendor format
0001_20160420_024916_Sikuliaq.all.mb58.gz 13.33MB Kongsberg multibeam vendor format
0002_20160420_031158_Sikuliaq.all.mb58.gz 398.75MB Kongsberg multibeam vendor format
0003_20160420_051157_Sikuliaq.all.mb58.gz 177.09MB Kongsberg multibeam vendor format
0004_20160420_071202_Sikuliaq.all.mb58.gz 105.90MB Kongsberg multibeam vendor format
0005_20160420_091159_Sikuliaq.all.mb58.gz 105.42MB Kongsberg multibeam vendor format
0006_20160420_111157_Sikuliaq.all.mb58.gz 80.59MB Kongsberg multibeam vendor format
0007_20160420_131202_Sikuliaq.all.mb58.gz 81.49MB Kongsberg multibeam vendor format
0008_20160420_151157_Sikuliaq.all.mb58.gz 112.50MB Kongsberg multibeam vendor format
0009_20160420_171158_Sikuliaq.all.mb58.gz 117.97MB Kongsberg multibeam vendor format
0010_20160420_191200_Sikuliaq.all.mb58.gz 118.04MB Kongsberg multibeam vendor format
0011_20160420_211158_Sikuliaq.all.mb58.gz 94.29MB Kongsberg multibeam vendor format
0012_20160420_231201_Sikuliaq.all.mb58.gz 83.07MB Kongsberg multibeam vendor format
0013_20160421_011200_Sikuliaq.all.mb58.gz 103.26MB Kongsberg multibeam vendor format
0014_20160421_031159_Sikuliaq.all.mb58.gz 115.66MB Kongsberg multibeam vendor format
0015_20160421_051157_Sikuliaq.all.mb58.gz 93.87MB Kongsberg multibeam vendor format
0016_20160421_071159_Sikuliaq.all.mb58.gz 109.61MB Kongsberg multibeam vendor format
0017_20160421_091158_Sikuliaq.all.mb58.gz 73.98MB Kongsberg multibeam vendor format
0018_20160421_111200_Sikuliaq.all.mb58.gz 69.61MB Kongsberg multibeam vendor format
0019_20160421_131204_Sikuliaq.all.mb58.gz 68.24MB Kongsberg multibeam vendor format
0020_20160421_151201_Sikuliaq.all.mb58.gz 66.50MB Kongsberg multibeam vendor format
0021_20160421_171202_Sikuliaq.all.mb58.gz 67.85MB Kongsberg multibeam vendor format
0022_20160421_191200_Sikuliaq.all.mb58.gz 67.04MB Kongsberg multibeam vendor format
0023_20160421_211203_Sikuliaq.all.mb58.gz 65.28MB Kongsberg multibeam vendor format
0024_20160421_231204_Sikuliaq.all.mb58.gz 64.40MB Kongsberg multibeam vendor format
0025_20160422_011204_Sikuliaq.all.mb58.gz 64.47MB Kongsberg multibeam vendor format
0026_20160422_031205_Sikuliaq.all.mb58.gz 65.27MB Kongsberg multibeam vendor format
0027_20160422_051202_Sikuliaq.all.mb58.gz 67.06MB Kongsberg multibeam vendor format
0028_20160422_071203_Sikuliaq.all.mb58.gz 67.05MB Kongsberg multibeam vendor format
0029_20160422_091202_Sikuliaq.all.mb58.gz 67.08MB Kongsberg multibeam vendor format
0030_20160422_111203_Sikuliaq.all.mb58.gz 20.04MB Kongsberg multibeam vendor format
0031_20160423_153620_Sikuliaq.all.mb58.gz 67.92MB Kongsberg multibeam vendor format
0032_20160423_173617_Sikuliaq.all.mb58.gz 67.38MB Kongsberg multibeam vendor format
0033_20160423_193615_Sikuliaq.all.mb58.gz 67.45MB Kongsberg multibeam vendor format
0034_20160423_213617_Sikuliaq.all.mb58.gz 67.84MB Kongsberg multibeam vendor format
0035_20160423_233615_Sikuliaq.all.mb58.gz 66.95MB Kongsberg multibeam vendor format
0036_20160424_013617_Sikuliaq.all.mb58.gz 117.07MB Kongsberg multibeam vendor format
0037_20160424_033615_Sikuliaq.all.mb58.gz 80.84MB Kongsberg multibeam vendor format
0038_20160424_053617_Sikuliaq.all.mb58.gz 150.61MB Kongsberg multibeam vendor format
0039_20160424_073616_Sikuliaq.all.mb58.gz 88.24MB Kongsberg multibeam vendor format
0040_20160424_093618_Sikuliaq.all.mb58.gz 116.83MB Kongsberg multibeam vendor format
0041_20160424_113615_Sikuliaq.all.mb58.gz 123.57MB Kongsberg multibeam vendor format
0042_20160424_133616_Sikuliaq.all.mb58.gz 115.25MB Kongsberg multibeam vendor format
0043_20160424_153616_Sikuliaq.all.mb58.gz 145.61MB Kongsberg multibeam vendor format
0044_20160424_201711_Sikuliaq.all.mb58.gz 150.98MB Kongsberg multibeam vendor format
0045_20160424_221711_Sikuliaq.all.mb58.gz 96.13MB Kongsberg multibeam vendor format
0046_20160425_001714_Sikuliaq.all.mb58.gz 92.70MB Kongsberg multibeam vendor format
0047_20160425_021711_Sikuliaq.all.mb58.gz 123.12MB Kongsberg multibeam vendor format
0048_20160425_041711_Sikuliaq.all.mb58.gz 116.82MB Kongsberg multibeam vendor format
0049_20160425_061712_Sikuliaq.all.mb58.gz 97.18MB Kongsberg multibeam vendor format
0050_20160425_081711_Sikuliaq.all.mb58.gz 72.90MB Kongsberg multibeam vendor format
0051_20160425_101711_Sikuliaq.all.mb58.gz 91.97MB Kongsberg multibeam vendor format
0052_20160425_121713_Sikuliaq.all.mb58.gz 100.95MB Kongsberg multibeam vendor format
0053_20160425_141712_Sikuliaq.all.mb58.gz 98.96MB Kongsberg multibeam vendor format
0054_20160425_161712_Sikuliaq.all.mb58.gz 90.21MB Kongsberg multibeam vendor format
0055_20160425_181712_Sikuliaq.all.mb58.gz 90.31MB Kongsberg multibeam vendor format
0056_20160425_201712_Sikuliaq.all.mb58.gz 88.77MB Kongsberg multibeam vendor format
0057_20160425_221712_Sikuliaq.all.mb58.gz 79.35MB Kongsberg multibeam vendor format
0058_20160426_001712_Sikuliaq.all.mb58.gz 74.01MB Kongsberg multibeam vendor format
0059_20160426_021715_Sikuliaq.all.mb58.gz 64.77MB Kongsberg multibeam vendor format
0060_20160426_041716_Sikuliaq.all.mb58.gz 69.49MB Kongsberg multibeam vendor format
0061_20160426_061716_Sikuliaq.all.mb58.gz 70.44MB Kongsberg multibeam vendor format
0062_20160426_081713_Sikuliaq.all.mb58.gz 80.85MB Kongsberg multibeam vendor format
0063_20160426_101712_Sikuliaq.all.mb58.gz 91.20MB Kongsberg multibeam vendor format
0064_20160426_121713_Sikuliaq.all.mb58.gz 70.86MB Kongsberg multibeam vendor format
0065_20160426_141712_Sikuliaq.all.mb58.gz 69.75MB Kongsberg multibeam vendor format
0066_20160426_161712_Sikuliaq.all.mb58.gz 77.87MB Kongsberg multibeam vendor format
0067_20160426_181713_Sikuliaq.all.mb58.gz 84.89MB Kongsberg multibeam vendor format
0068_20160426_201714_Sikuliaq.all.mb58.gz 69.03MB Kongsberg multibeam vendor format
0069_20160426_221713_Sikuliaq.all.mb58.gz 57.12MB Kongsberg multibeam vendor format
0070_20160427_001719_Sikuliaq.all.mb58.gz 56.75MB Kongsberg multibeam vendor format
0071_20160427_021713_Sikuliaq.all.mb58.gz 54.52MB Kongsberg multibeam vendor format
0072_20160427_041713_Sikuliaq.all.mb58.gz 52.37MB Kongsberg multibeam vendor format
0073_20160427_061722_Sikuliaq.all.mb58.gz 12.69MB Kongsberg multibeam vendor format
0074_20160427_130400_Sikuliaq.all.mb58.gz 18.28MB Kongsberg multibeam vendor format
0075_20160427_133728_Sikuliaq.all.mb58.gz 64.86MB Kongsberg multibeam vendor format
0076_20160427_153731_Sikuliaq.all.mb58.gz 65.44MB Kongsberg multibeam vendor format
0077_20160427_173730_Sikuliaq.all.mb58.gz 65.38MB Kongsberg multibeam vendor format
0078_20160427_193729_Sikuliaq.all.mb58.gz 65.80MB Kongsberg multibeam vendor format
0079_20160427_213730_Sikuliaq.all.mb58.gz 64.31MB Kongsberg multibeam vendor format
0080_20160427_233729_Sikuliaq.all.mb58.gz 65.26MB Kongsberg multibeam vendor format
0081_20160428_013735_Sikuliaq.all.mb58.gz 61.88MB Kongsberg multibeam vendor format
0082_20160428_033729_Sikuliaq.all.mb58.gz 53.56MB Kongsberg multibeam vendor format
0083_20160428_053733_Sikuliaq.all.mb58.gz 50.44MB Kongsberg multibeam vendor format
0084_20160428_073728_Sikuliaq.all.mb58.gz 50.67MB Kongsberg multibeam vendor format
0085_20160428_093729_Sikuliaq.all.mb58.gz 36.19MB Kongsberg multibeam vendor format
0086_20160428_122847_Sikuliaq.all.mb58.gz 27.08MB Kongsberg multibeam vendor format
0087_20160428_132333_Sikuliaq.all.mb58.gz 25.88MB Kongsberg multibeam vendor format
0088_20160428_151949_Sikuliaq.all.mb58.gz 62.72MB Kongsberg multibeam vendor format
0089_20160430_021659_Sikuliaq.all.mb58.gz 50.30MB Kongsberg multibeam vendor format
0090_20160430_173754_Sikuliaq.all.mb58.gz 361.6KB Kongsberg multibeam vendor format
0091_20160501_174654_Sikuliaq.all.mb58.gz 445.5KB Kongsberg multibeam vendor format
0092_20160501_200235_Sikuliaq.all.mb58.gz 64.61MB Kongsberg multibeam vendor format
0093_20160501_220235_Sikuliaq.all.mb58.gz 64.56MB Kongsberg multibeam vendor format
0094_20160502_000233_Sikuliaq.all.mb58.gz 64.54MB Kongsberg multibeam vendor format
0095_20160502_020232_Sikuliaq.all.mb58.gz 54.85MB Kongsberg multibeam vendor format
0096_20160502_150734_Sikuliaq.all.mb58.gz 0.64MB Kongsberg multibeam vendor format
0097_20160502_194256_Sikuliaq.all.mb58.gz 72.43MB Kongsberg multibeam vendor format
0098_20160502_214254_Sikuliaq.all.mb58.gz 101.97MB Kongsberg multibeam vendor format
0099_20160502_234252_Sikuliaq.all.mb58.gz 121.27MB Kongsberg multibeam vendor format
0100_20160503_014252_Sikuliaq.all.mb58.gz 117.80MB Kongsberg multibeam vendor format
0101_20160503_034252_Sikuliaq.all.mb58.gz 122.09MB Kongsberg multibeam vendor format
0102_20160503_054253_Sikuliaq.all.mb58.gz 122.81MB Kongsberg multibeam vendor format
0103_20160503_074254_Sikuliaq.all.mb58.gz 123.73MB Kongsberg multibeam vendor format
0104_20160503_094253_Sikuliaq.all.mb58.gz 121.81MB Kongsberg multibeam vendor format
0105_20160503_114253_Sikuliaq.all.mb58.gz 118.99MB Kongsberg multibeam vendor format
0106_20160503_134253_Sikuliaq.all.mb58.gz 117.44MB Kongsberg multibeam vendor format
0107_20160503_154253_Sikuliaq.all.mb58.gz 118.16MB Kongsberg multibeam vendor format
0108_20160503_174253_Sikuliaq.all.mb58.gz 118.11MB Kongsberg multibeam vendor format
0109_20160503_194253_Sikuliaq.all.mb58.gz 116.77MB Kongsberg multibeam vendor format
0110_20160503_214253_Sikuliaq.all.mb58.gz 119.38MB Kongsberg multibeam vendor format
0111_20160503_234254_Sikuliaq.all.mb58.gz 117.87MB Kongsberg multibeam vendor format
0112_20160504_014253_Sikuliaq.all.mb58.gz 118.55MB Kongsberg multibeam vendor format
0113_20160504_034253_Sikuliaq.all.mb58.gz 117.64MB Kongsberg multibeam vendor format
0114_20160504_054255_Sikuliaq.all.mb58.gz 116.77MB Kongsberg multibeam vendor format
0115_20160504_074253_Sikuliaq.all.mb58.gz 115.39MB Kongsberg multibeam vendor format
0116_20160504_094256_Sikuliaq.all.mb58.gz 114.99MB Kongsberg multibeam vendor format
0117_20160504_114254_Sikuliaq.all.mb58.gz 77.11MB Kongsberg multibeam vendor format
0118_20160504_214134_Sikuliaq.all.mb58.gz 2.19MB Kongsberg multibeam vendor format
0119_20160505_020155_Sikuliaq.all.mb58.gz 89.91MB Kongsberg multibeam vendor format
0120_20160505_040155_Sikuliaq.all.mb58.gz 15.68MB Kongsberg multibeam vendor format
0121_20160505_174403_Sikuliaq.all.mb58.gz 68.99MB Kongsberg multibeam vendor format
0122_20160505_194404_Sikuliaq.all.mb58.gz 12.79MB Kongsberg multibeam vendor format
0123_20160505_200913_Sikuliaq.all.mb58.gz 74.88MB Kongsberg multibeam vendor format
0124_20160505_220906_Sikuliaq.all.mb58.gz 75.78MB Kongsberg multibeam vendor format
0125_20160506_000907_Sikuliaq.all.mb58.gz 75.76MB Kongsberg multibeam vendor format
0126_20160506_020909_Sikuliaq.all.mb58.gz 49.68MB Kongsberg multibeam vendor format
0127_20160506_140527_Sikuliaq.all.mb58.gz 2.26MB Kongsberg multibeam vendor format
0128_20160506_173845_Sikuliaq.all.mb58.gz 97.89MB Kongsberg multibeam vendor format
0129_20160506_193840_Sikuliaq.all.mb58.gz 122.97MB Kongsberg multibeam vendor format
0130_20160506_213839_Sikuliaq.all.mb58.gz 104.06MB Kongsberg multibeam vendor format
0131_20160506_233840_Sikuliaq.all.mb58.gz 107.39MB Kongsberg multibeam vendor format
0132_20160507_013841_Sikuliaq.all.mb58.gz 102.72MB Kongsberg multibeam vendor format
0133_20160507_033840_Sikuliaq.all.mb58.gz 102.89MB Kongsberg multibeam vendor format
0134_20160507_053841_Sikuliaq.all.mb58.gz 102.83MB Kongsberg multibeam vendor format
0135_20160507_073841_Sikuliaq.all.mb58.gz 102.85MB Kongsberg multibeam vendor format
0136_20160507_093841_Sikuliaq.all.mb58.gz 102.49MB Kongsberg multibeam vendor format
0137_20160507_113840_Sikuliaq.all.mb58.gz 107.21MB Kongsberg multibeam vendor format
0138_20160507_133841_Sikuliaq.all.mb58.gz 103.97MB Kongsberg multibeam vendor format
0139_20160507_153840_Sikuliaq.all.mb58.gz 100.81MB Kongsberg multibeam vendor format
0140_20160507_173840_Sikuliaq.all.mb58.gz 102.67MB Kongsberg multibeam vendor format
0141_20160507_193840_Sikuliaq.all.mb58.gz 102.09MB Kongsberg multibeam vendor format
0142_20160507_213840_Sikuliaq.all.mb58.gz 101.02MB Kongsberg multibeam vendor format
0143_20160507_233841_Sikuliaq.all.mb58.gz 102.36MB Kongsberg multibeam vendor format
0144_20160508_013840_Sikuliaq.all.mb58.gz 101.90MB Kongsberg multibeam vendor format
0145_20160508_033840_Sikuliaq.all.mb58.gz 101.03MB Kongsberg multibeam vendor format
0146_20160508_053841_Sikuliaq.all.mb58.gz 100.01MB Kongsberg multibeam vendor format
0147_20160508_073841_Sikuliaq.all.mb58.gz 101.61MB Kongsberg multibeam vendor format
0148_20160508_093841_Sikuliaq.all.mb58.gz 101.91MB Kongsberg multibeam vendor format
0149_20160508_113841_Sikuliaq.all.mb58.gz 103.97MB Kongsberg multibeam vendor format
0150_20160508_133841_Sikuliaq.all.mb58.gz 103.72MB Kongsberg multibeam vendor format
0151_20160508_153841_Sikuliaq.all.mb58.gz 101.43MB Kongsberg multibeam vendor format
0152_20160508_173841_Sikuliaq.all.mb58.gz 103.16MB Kongsberg multibeam vendor format
0153_20160508_193841_Sikuliaq.all.mb58.gz 103.32MB Kongsberg multibeam vendor format
0154_20160508_213841_Sikuliaq.all.mb58.gz 102.89MB Kongsberg multibeam vendor format
0155_20160508_233841_Sikuliaq.all.mb58.gz 102.92MB Kongsberg multibeam vendor format
0156_20160509_013842_Sikuliaq.all.mb58.gz 104.22MB Kongsberg multibeam vendor format
0157_20160509_033841_Sikuliaq.all.mb58.gz 103.83MB Kongsberg multibeam vendor format
0158_20160509_053841_Sikuliaq.all.mb58.gz 103.28MB Kongsberg multibeam vendor format
0159_20160509_073841_Sikuliaq.all.mb58.gz 101.54MB Kongsberg multibeam vendor format
0160_20160509_093842_Sikuliaq.all.mb58.gz 101.90MB Kongsberg multibeam vendor format
0161_20160509_113841_Sikuliaq.all.mb58.gz 103.14MB Kongsberg multibeam vendor format
0162_20160509_133842_Sikuliaq.all.mb58.gz 102.75MB Kongsberg multibeam vendor format
0163_20160509_153842_Sikuliaq.all.mb58.gz 101.71MB Kongsberg multibeam vendor format
0164_20160509_173842_Sikuliaq.all.mb58.gz 104.96MB Kongsberg multibeam vendor format
0165_20160509_193842_Sikuliaq.all.mb58.gz 103.41MB Kongsberg multibeam vendor format
0166_20160509_213842_Sikuliaq.all.mb58.gz 104.24MB Kongsberg multibeam vendor format
0167_20160509_233842_Sikuliaq.all.mb58.gz 104.26MB Kongsberg multibeam vendor format
0168_20160510_013843_Sikuliaq.all.mb58.gz 104.35MB Kongsberg multibeam vendor format
0169_20160510_033842_Sikuliaq.all.mb58.gz 103.23MB Kongsberg multibeam vendor format
0170_20160510_053842_Sikuliaq.all.mb58.gz 104.78MB Kongsberg multibeam vendor format
0171_20160510_073843_Sikuliaq.all.mb58.gz 103.95MB Kongsberg multibeam vendor format
0172_20160510_093842_Sikuliaq.all.mb58.gz 103.04MB Kongsberg multibeam vendor format
0173_20160510_113842_Sikuliaq.all.mb58.gz 78.84MB Kongsberg multibeam vendor format
0174_20160510_133842_Sikuliaq.all.mb58.gz 75.67MB Kongsberg multibeam vendor format
0175_20160510_153842_Sikuliaq.all.mb58.gz 97.62MB Kongsberg multibeam vendor format
0176_20160510_173843_Sikuliaq.all.mb58.gz 110.42MB Kongsberg multibeam vendor format
0177_20160510_193842_Sikuliaq.all.mb58.gz 101.34MB Kongsberg multibeam vendor format
0178_20160510_213843_Sikuliaq.all.mb58.gz 100.47MB Kongsberg multibeam vendor format
0179_20160510_233843_Sikuliaq.all.mb58.gz 101.89MB Kongsberg multibeam vendor format
0180_20160511_013843_Sikuliaq.all.mb58.gz 104.06MB Kongsberg multibeam vendor format
0181_20160511_033843_Sikuliaq.all.mb58.gz 103.78MB Kongsberg multibeam vendor format
0182_20160511_053843_Sikuliaq.all.mb58.gz 105.42MB Kongsberg multibeam vendor format
0183_20160511_073843_Sikuliaq.all.mb58.gz 90.71MB Kongsberg multibeam vendor format
0184_20160511_093843_Sikuliaq.all.mb58.gz 67.43MB Kongsberg multibeam vendor format
0185_20160511_113845_Sikuliaq.all.mb58.gz 73.41MB Kongsberg multibeam vendor format
0186_20160511_133846_Sikuliaq.all.mb58.gz 75.17MB Kongsberg multibeam vendor format
0187_20160511_153846_Sikuliaq.all.mb58.gz 75.36MB Kongsberg multibeam vendor format
0188_20160511_173845_Sikuliaq.all.mb58.gz 75.34MB Kongsberg multibeam vendor format
0189_20160511_193843_Sikuliaq.all.mb58.gz 79.73MB Kongsberg multibeam vendor format
0190_20160511_213845_Sikuliaq.all.mb58.gz 92.09MB Kongsberg multibeam vendor format
0191_20160511_233844_Sikuliaq.all.mb58.gz 107.94MB Kongsberg multibeam vendor format
0192_20160512_013848_Sikuliaq.all.mb58.gz 167.69MB Kongsberg multibeam vendor format
0193_20160512_033844_Sikuliaq.all.mb58.gz 101.79MB Kongsberg multibeam vendor format
0194_20160512_053848_Sikuliaq.all.mb58.gz 81.92MB Kongsberg multibeam vendor format
0195_20160512_073847_Sikuliaq.all.mb58.gz 85.88MB Kongsberg multibeam vendor format
0196_20160512_093851_Sikuliaq.all.mb58.gz 129.78MB Kongsberg multibeam vendor format
0197_20160512_113844_Sikuliaq.all.mb58.gz 138.86MB Kongsberg multibeam vendor format
0198_20160512_133847_Sikuliaq.all.mb58.gz 101.66MB Kongsberg multibeam vendor format
0199_20160512_153844_Sikuliaq.all.mb58.gz 81.72MB Kongsberg multibeam vendor format
0200_20160512_173844_Sikuliaq.all.mb58.gz 229.96MB Kongsberg multibeam vendor format
0000_20160420_023524_Sikuliaq.all.mb58.gz 133.86MB Kongsberg multibeam vendor format
0001_20160420_040524_Sikuliaq.all.mb58.gz 365.33MB Kongsberg multibeam vendor format
0002_20160420_053524_Sikuliaq.all.mb58.gz 64.99MB Kongsberg multibeam vendor format
em302_bag_info.tar.gz 22.3KB Tar archive of unsupported MB data
em710_bag_info.tar.gz 1.1KB Tar archive of unsupported MB data

Metadata Files: 1

Files File Size Description
SKQ201605S_Multibeam.xml NCEI created ISO metadata

Water Column Sonar Data

Water Column Sonar Data Available: WCSD Map Viewer